• In Germany
  • List of Countries
  • For 7 days
  • Water Temperature
  • Satellite Maps
  • Weather Map
  • Weather Widgets
  • user-avatar
    Login

    Hourly Weather Khulna

    Today, 13 December, Wednesday

    Time Temperature Precipitation Wind Pressure Humidity
    00:00 +22°C° 0 mm 0 mps 760 mmHg 72%
    01:00 +22°C° 0 mm 0 mps 759 mmHg 73%
    02:00 +21°C° 0 mm 0 mps 759 mmHg 74%
    03:00 +21°C° 0 mm 0 mps 759 mmHg 75%
    04:00 +21°C° 0 mm 0 mps 759 mmHg 76%
    05:00 +20°C° 0 mm 0 mps 760 mmHg 77%
    06:00 +20°C° 0 mm 0 mps 760 mmHg 81%
    07:00 +22°C° 0 mm 0 mps 760 mmHg 75%
    08:00 +23°C° 0 mm 0 mps 761 mmHg 70%
    09:00 +25°C° 0 mm 0 mps 761 mmHg 64%
    10:00 +28°C° 0 mm 1 mps 761 mmHg 59%
    11:00 +29°C° 0 mm 1 mps 761 mmHg 53%
    12:00 +30°C° 0 mm 1 mps 761 mmHg 50%
    13:00 +30°C° 0 mm 1 mps 760 mmHg 48%
    14:00 +31°C° 0 mm 1 mps 759 mmHg 46%
    15:00 +31°C° 0 mm 2 mps 759 mmHg 44%
    16:00 +29°C° 0 mm 1 mps 759 mmHg 48%
    17:00 +28°C° 0 mm 1 mps 759 mmHg 52%
    18:00 +27°C° 0 mm 1 mps 759 mmHg 56%
    19:00 +26°C° 0 mm 1 mps 759 mmHg 58%
    20:00 +24°C° 0 mm 0 mps 760 mmHg 59%
    21:00 +23°C° 0 mm 0 mps 760 mmHg 60%
    22:00 +23°C° 0 mm 0 mps 760 mmHg 61%
    23:00 +22°C° 0 mm 0 mps 760 mmHg 62%

    Tomorrow, 14 December, Thursday

    Time Temperature Precipitation Wind Pressure Humidity
    00:00 +22°C° 0 mm 0 mps 760 mmHg 63%
    01:00 +23°C° 0 mm 1 mps 760 mmHg 64%
    02:00 +23°C° 0 mm 1 mps 759 mmHg 65%
    03:00 +23°C° 0 mm 1 mps 759 mmHg 65%
    04:00 +22°C° 0 mm 1 mps 759 mmHg 66%
    05:00 +22°C° 0 mm 1 mps 760 mmHg 66%
    06:00 +22°C° 0 mm 1 mps 760 mmHg 67%
    07:00 +23°C° 0 mm 1 mps 761 mmHg 62%
    08:00 +25°C° 0 mm 2 mps 761 mmHg 58%
    09:00 +26°C° 0 mm 2 mps 762 mmHg 53%
    10:00 +28°C° 0 mm 2 mps 762 mmHg 48%
    11:00 +29°C° 0 mm 3 mps 761 mmHg 42%
    12:00 +31°C° 0 mm 3 mps 761 mmHg 37%
    13:00 +31°C° 0 mm 3 mps 761 mmHg 36%
    14:00 +31°C° 0 mm 3 mps 760 mmHg 35%
    15:00 +31°C° 0 mm 3 mps 759 mmHg 34%
    16:00 +29°C° 0 mm 2 mps 759 mmHg 37%
    17:00 +28°C° 0 mm 2 mps 759 mmHg 41%
    18:00 +26°C° 0 mm 1 mps 759 mmHg 45%
    19:00 +25°C° 0 mm 1 mps 760 mmHg 46%
    20:00 +25°C° 0 mm 1 mps 760 mmHg 47%
    21:00 +24°C° 0 mm 1 mps 761 mmHg 48%
    22:00 +24°C° 0 mm 1 mps 761 mmHg 49%
    23:00 +23°C° 0 mm 1 mps 761 mmHg 50%

    Day after tomorrow, 15 December, Friday

    Time Temperature Precipitation Wind Pressure Humidity
    00:00 +23°C° 0 mm 2 mps 761 mmHg 51%
    01:00 +21°C° 0 mm 2 mps 760 mmHg 52%
    02:00 +21°C° 0 mm 2 mps 760 mmHg 52%
    03:00 +21°C° 0 mm 2 mps 760 mmHg 53%
    04:00 +20°C° 0 mm 2 mps 760 mmHg 55%
    05:00 +20°C° 0 mm 2 mps 760 mmHg 56%
    06:00 +19°C° 0 mm 2 mps 760 mmHg 57%
    07:00 +21°C° 0 mm 2 mps 761 mmHg 54%
    08:00 +23°C° 0 mm 2 mps 762 mmHg 51%
    09:00 +25°C° 0 mm 3 mps 762 mmHg 48%
    10:00 +26°C° 0 mm 3 mps 762 mmHg 42%
    11:00 +28°C° 0 mm 3 mps 762 mmHg 36%
    12:00 +29°C° 0 mm 4 mps 761 mmHg 30%
    13:00 +30°C° 0 mm 4 mps 761 mmHg 29%
    14:00 +30°C° 0 mm 4 mps 760 mmHg 28%
    15:00 +30°C° 0 mm 4 mps 759 mmHg 26%
    16:00 +28°C° 0 mm 3 mps 759 mmHg 30%
    17:00 +26°C° 0 mm 2 mps 760 mmHg 33%
    18:00 +24°C° 0 mm 2 mps 760 mmHg 36%
    19:00 +23°C° 0 mm 2 mps 761 mmHg 37%
    20:00 +23°C° 0 mm 2 mps 761 mmHg 38%
    21:00 +21°C° 0 mm 2 mps 762 mmHg 38%
    22:00 +21°C° 0 mm 2 mps 762 mmHg 39%
    23:00 +20°C° 0 mm 2 mps 762 mmHg 40%

    16 December, Saturday

    Time Temperature Precipitation Wind Pressure Humidity
    00:00 +20°C° 0 mm 2 mps 762 mmHg 41%
    01:00 +19°C° 0 mm 2 mps 762 mmHg 42%
    02:00 +19°C° 0 mm 2 mps 761 mmHg 43%
    03:00 +18°C° 0 mm 2 mps 761 mmHg 44%
    04:00 +18°C° 0 mm 2 mps 761 mmHg 45%
    05:00 +17°C° 0 mm 2 mps 761 mmHg 46%
    06:00 +17°C° 0 mm 2 mps 761 mmHg 48%
    07:00 +19°C° 0 mm 2 mps 762 mmHg 46%
    08:00 +20°C° 0 mm 2 mps 763 mmHg 44%
    09:00 +23°C° 0 mm 2 mps 763 mmHg 42%
    10:00 +24°C° 0 mm 2 mps 763 mmHg 38%
    11:00 +26°C° 0 mm 2 mps 762 mmHg 34%
    12:00 +28°C° 0 mm 2 mps 762 mmHg 31%
    13:00 +28°C° 0 mm 2 mps 761 mmHg 30%
    14:00 +28°C° 0 mm 3 mps 761 mmHg 29%
    15:00 +29°C° 0 mm 3 mps 760 mmHg 28%
    16:00 +27°C° 0 mm 2 mps 760 mmHg 32%
    17:00 +25°C° 0 mm 2 mps 761 mmHg 36%
    18:00 +23°C° 0 mm 2 mps 761 mmHg 40%
    19:00 +23°C° 0 mm 1 mps 761 mmHg 42%
    20:00 +22°C° 0 mm 1 mps 762 mmHg 43%
    21:00 +21°C° 0 mm 1 mps 763 mmHg 44%
    22:00 +21°C° 0 mm 1 mps 762 mmHg 45%
    23:00 +21°C° 0 mm 1 mps 762 mmHg 46%

    17 December, Sunday

    Time Temperature Precipitation Wind Pressure Humidity
    00:00 +20°C° 0 mm 1 mps 762 mmHg 47%
    01:00 +20°C° 0 mm 1 mps 762 mmHg 48%
    02:00 +19°C° 0 mm 1 mps 762 mmHg 49%
    03:00 +18°C° 0 mm 2 mps 762 mmHg 50%
    04:00 +19°C° 0 mm 1 mps 762 mmHg 51%
    05:00 +18°C° 0 mm 1 mps 762 mmHg 53%
    06:00 +18°C° 0 mm 1 mps 762 mmHg 54%
    07:00 +20°C° 0 mm 1 mps 763 mmHg 52%
    08:00 +21°C° 0 mm 1 mps 764 mmHg 49%
    09:00 +23°C° 0 mm 1 mps 764 mmHg 47%
    10:00 +25°C° 0 mm 1 mps 764 mmHg 44%
    11:00 +26°C° 0 mm 2 mps 763 mmHg 40%
    12:00 +28°C° 0 mm 2 mps 763 mmHg 36%
    13:00 +28°C° 0 mm 2 mps 762 mmHg 35%
    14:00 +29°C° 0 mm 2 mps 762 mmHg 33%
    15:00 +29°C° 0 mm 2 mps 761 mmHg 31%
    16:00 +28°C° 0 mm 2 mps 761 mmHg 35%
    17:00 +26°C° 0 mm 1 mps 761 mmHg 39%
    18:00 +24°C° 0 mm 1 mps 761 mmHg 44%
    19:00 +23°C° 0 mm 1 mps 762 mmHg 45%
    20:00 +23°C° 0 mm 1 mps 762 mmHg 47%
    21:00 +22°C° 0 mm 1 mps 763 mmHg 49%
    22:00 +22°C° 0 mm 1 mps 762 mmHg 51%
    23:00 +21°C° 0 mm 1 mps 762 mmHg 52%

    18 December, Monday

    Time Temperature Precipitation Wind Pressure Humidity
    00:00 +21°C° 0 mm 1 mps 762 mmHg 54%
    01:00 +20°C° 0 mm 1 mps 762 mmHg 55%
    02:00 +20°C° 0 mm 1 mps 762 mmHg 57%
    03:00 +19°C° 0 mm 2 mps 762 mmHg 59%
    04:00 +19°C° 0 mm 1 mps 762 mmHg 61%
    05:00 +19°C° 0 mm 1 mps 762 mmHg 63%
    06:00 +19°C° 0 mm 1 mps 762 mmHg 65%
    07:00 +20°C° 0 mm 1 mps 763 mmHg 61%
    08:00 +22°C° 0 mm 1 mps 763 mmHg 57%
    09:00 +24°C° 0 mm 1 mps 764 mmHg 54%
    10:00 +25°C° 0 mm 1 mps 764 mmHg 49%
    11:00 +27°C° 0 mm 1 mps 763 mmHg 44%
    12:00 +28°C° 0 mm 1 mps 763 mmHg 40%
    13:00 +29°C° 0 mm 1 mps 762 mmHg 38%
    14:00 +29°C° 0 mm 1 mps 762 mmHg 36%
    15:00 +29°C° 0 mm 2 mps 761 mmHg 34%
    16:00 +28°C° 0 mm 1 mps 761 mmHg 38%
    17:00 +26°C° 0 mm 1 mps 761 mmHg 42%
    18:00 +24°C° 0 mm 1 mps 761 mmHg 46%
    19:00 +24°C° 0 mm 1 mps 762 mmHg 48%
    20:00 +23°C° 0 mm 1 mps 762 mmHg 50%
    21:00 +23°C° 0 mm 1 mps 762 mmHg 51%
    22:00 +22°C° 0 mm 1 mps 762 mmHg 52%
    23:00 +22°C° 0 mm 1 mps 762 mmHg 54%
    Show more